Location: Unspecified
(0.0000°N, 0.0000°E)
Time: 20:10:47
(UTC+00:00)

OTV 5 (USA 277) - Visible Passes

Search period start: 19 November 2018 00:00
Search period end: 29 November 2018 00:00
Orbit: 339 x 348 km, 54.5° (Epoch: 14 November)

Date Brightness Start Highest point End Pass type
(mag) Time Alt. Az. Time Alt. Az. Time Alt. Az.
20 Nov ? 04:57:09 10° SE 04:57:43 10° ESE 04:58:18 10° ESE visible
21 Nov ? 05:18:19 10° SSW 05:21:11 68° ESE 05:24:03 10° NE visible
23 Nov ? 04:30:31 10° SSW 04:33:23 61° ESE 04:36:13 10° NE visible
24 Nov ? 04:57:41 15° NW 04:57:41 15° NW 04:58:46 10° NNW visible
